Tracking 19636 objects as of 24-May-2019
HD Live streaming from Space Station
objects crossing your sky now

TIANZHI 1

Track TIANZHI 1 now!
10-day predictions


NORAD ID: 43710
Int'l Code: 2018-094A
Perigee: 493.2 km
Apogee: 512.2 km
Inclination: 97.4 °
Period: 94.5 minutes
Semi major axis: 6873 km
RCS: Unknown
Launch date: November 19, 2018
Source: People's Republic of China (PRC)
Launch site: Jiuquan Satellite Launch Center, China (JSC)
aabbcc
Your satellite tracking list
Your tracking list is empty




NASA's NSSDC Master Catalog

Two Line Element Set (TLE):
1 43710U 18094A   19143.83172777  .00000195  00000-0  11180-4 0  9997
2 43710  97.4061 151.2923 0013792 345.2700 137.6308 15.23405463 28146
Source of the keplerian elements: AFSPC